Laurinburg-Maxton, NC

11:17 AM EDT on March 30, 2017 (GMT -0400)
Laurinburg-Maxton

Weather History for KMEB - March, 2014

Change the Weather History Date:

Saturday, March 15, 2014

  Actual Average (KHFF) Record (KHFF)
Temperature  
Mean Temperature 60 °F -  
Max Temperature 73 °F 61 °F 83 °F (2012)
Min Temperature 48 °F 41 °F 26 °F (2013)
Degree Days  
Heating Degree Days 5    
Growing Degree Days 10 (Base 50)    
Moisture  
Dew Point 38 °F    
Average Humidity 50    
Maximum Humidity 77    
Minimum Humidity 24    
Precipitation  
Precipitation 0.00 in - - ()
Sea Level Pressure  
Sea Level Pressure 30.05 in    
Wind  
Wind Speed 10 mph (WSW)    
Max Wind Speed 17 mph    
Max Gust Speed 22 mph    
Visibility 10 miles    
Events      
Averages and records for this station are not official NWS values.
T = Trace of Precipitation, MM = Missing Value Source: NWS Daily Summary

Daily Weather History Graph

Daily Weather History Graph

Search for Another Location

Airport or City:

Trip Planner

Search our weather history database for the weather conditions in past years. The results will help you decide how hot, cold, wet, or windy it might be!

Date:

Astronomy

Mar. 15, 2014 Rise Set
Actual Time 7:28 AM EDT 7:25 PM EDT
Civil Twilight 7:02 AM EDT 7:50 PM EDT
Nautical Twilight 6:33 AM EDT 8:19 PM EDT
Astronomical Twilight 6:04 AM EDT 8:49 PM EDT
Moon 6:43 PM EDT (3/15) 6:37 AM EDT (3/15)
Length of Visible Light 12h 47m
Length of Day
11h 57m
Waxing Gibbous, 99% of the Moon is Illuminated
Mar 15
Waxing Gibbous
Mar 16
Full
Mar 23
Last Quarter
Mar 30
New
Apr 7
First Quarter

Hourly Weather History & Observations

Time (EDT) Temp. Dew Point Humidity Pressure Visibility Wind Dir Wind Speed Gust Speed Precip Events Conditions
12:52 AM 52.0 °F 39.0 °F 61% 30.14 in 10.0 mi SW 12.7 mph - N/A   Scattered Clouds
1:52 AM 53.1 °F 41.0 °F 64% 30.09 in 10.0 mi SW 11.5 mph - N/A   Overcast
2:52 AM 52.0 °F 41.0 °F 66% 30.09 in 10.0 mi SW 10.4 mph - N/A   Overcast
3:52 AM 53.1 °F 42.1 °F 66% 30.08 in 10.0 mi SW 10.4 mph - N/A   Overcast
4:52 AM 53.1 °F 42.1 °F 66% 30.07 in 10.0 mi SW 10.4 mph - N/A   Overcast
5:52 AM 53.1 °F 42.1 °F 66% 30.06 in 10.0 mi SW 11.5 mph - N/A   Overcast
6:52 AM 50.0 °F 41.0 °F 71% 30.07 in 10.0 mi SW 10.4 mph - N/A   Clear
7:52 AM 48.9 °F 41.0 °F 74% 30.08 in 10.0 mi SW 6.9 mph - N/A   Clear
8:52 AM 54.0 °F 41.0 °F 62% 30.09 in 10.0 mi WSW 8.1 mph - N/A   Clear
9:52 AM 57.0 °F 39.0 °F 51% 30.10 in 10.0 mi WSW 13.8 mph - N/A   Clear
10:52 AM 62.1 °F 37.9 °F 41% 30.09 in 10.0 mi WSW 12.7 mph - N/A   Clear
11:52 AM 66.0 °F 36.0 °F 33% 30.08 in 10.0 mi West 12.7 mph - N/A   Clear
12:52 PM 69.1 °F 34.0 °F 27% 30.06 in 10.0 mi WSW 11.5 mph - N/A   Clear
1:52 PM 71.1 °F 34.0 °F 26% 30.04 in 10.0 mi North - - N/A   Clear
2:52 PM 71.1 °F 33.1 °F 25% 30.01 in 10.0 mi SW 15.0 mph 21.9 mph N/A   Clear
3:52 PM 72.0 °F 33.1 °F 24% 29.99 in 10.0 mi WSW 13.8 mph - N/A   Clear
4:52 PM 72.0 °F 33.1 °F 24% 29.97 in 10.0 mi West 17.3 mph 21.9 mph N/A   Clear
5:52 PM 71.1 °F 33.1 °F 25% 29.98 in 10.0 mi West 9.2 mph - N/A   Clear
6:52 PM 66.0 °F 32.0 °F 28% 30.00 in 10.0 mi WNW 4.6 mph - N/A   Clear
7:52 PM 61.0 °F 35.1 °F 38% 30.01 in 10.0 mi Calm Calm - N/A   Clear
8:52 PM 57.0 °F 37.9 °F 49% 30.03 in 10.0 mi Calm Calm - N/A   Clear
9:52 PM 52.0 °F 39.9 °F 63% 30.04 in 10.0 mi Calm Calm - N/A   Clear
10:52 PM 50.0 °F 39.0 °F 66% 30.04 in 10.0 mi Calm Calm - N/A   Clear
11:52 PM 48.0 °F 41.0 °F 77% 30.05 in 10.0 mi Calm Calm - N/A   Clear